Satellite-Ground Cal/Val Region Overpasses Predictions

Prediction of Satellite NPP Overpassing Cal/Val Region: PacNW

Region Location: (Latitude: 10.00, Longitude: 139.50) to (Latitude: 22.70, Longitude: 165.60).

Table of predicted overpasses for the next 14.0 days since TLE Epoch: 2/2/2018
Interval Starting Time Starting Location Ending Time Ending Location
1 02/03/2018 02:58:12 ( 10.00, 155.13) 02/03/2018 03:01:48 ( 22.68, 152.12)
2 02/03/2018 15:30:06 ( 22.64, 152.35) 02/03/2018 15:33:41 ( 10.02, 149.35)
3 02/04/2018 02:39:10 ( 10.01, 159.89) 02/04/2018 02:42:46 ( 22.69, 156.87)
4 02/04/2018 15:11:03 ( 22.70, 157.12) 02/04/2018 15:14:39 ( 10.01, 154.11)
5 02/05/2018 02:20:08 ( 10.01, 164.65) 02/05/2018 02:23:44 ( 22.69, 161.63)
6 02/05/2018 14:52:00 ( 22.69, 161.88) 02/05/2018 14:55:36 ( 10.01, 158.87)
7 02/06/2018 03:42:35 ( 10.03, 144.03) 02/06/2018 03:46:10 ( 22.65, 141.03)
8 02/06/2018 14:34:11 ( 18.40, 165.59) 02/06/2018 14:36:33 ( 10.06, 163.64)
9 02/06/2018 16:14:28 ( 22.67, 141.26) 02/06/2018 16:16:32 ( 15.40, 139.50)
10 02/07/2018 03:23:33 ( 10.04, 148.79) 02/07/2018 03:27:08 ( 22.66, 145.79)
11 02/07/2018 15:55:25 ( 22.66, 146.02) 02/07/2018 15:59:00 ( 10.04, 143.02)
12 02/08/2018 03:04:30 ( 10.04, 153.55) 02/08/2018 03:08:05 ( 22.66, 150.55)
13 02/08/2018 15:36:23 ( 22.66, 150.78) 02/08/2018 15:39:58 ( 10.03, 147.78)
14 02/09/2018 02:45:28 ( 10.05, 158.31) 02/09/2018 02:49:03 ( 22.67, 155.30)
15 02/09/2018 15:17:20 ( 22.65, 155.54) 02/09/2018 15:20:55 ( 10.03, 152.54)
16 02/10/2018 02:26:25 ( 10.06, 163.07) 02/10/2018 02:30:00 ( 22.68, 160.06)
17 02/10/2018 14:58:17 ( 22.70, 160.31) 02/10/2018 15:01:53 ( 10.02, 157.30)
18 02/11/2018 02:10:05 ( 19.58, 165.59) 02/11/2018 02:10:58 ( 22.69, 164.82)
19 02/11/2018 03:48:52 ( 10.02, 142.46) 02/11/2018 03:52:24 ( 22.46, 139.50)
20 02/11/2018 14:39:14 ( 22.69, 165.07) 02/11/2018 14:42:50 ( 10.01, 162.06)
21 02/11/2018 16:20:44 ( 22.68, 139.69) 02/11/2018 16:20:57 ( 21.92, 139.50)
22 02/12/2018 03:29:49 ( 10.03, 147.22) 02/12/2018 03:33:24 ( 22.65, 144.22)
23 02/12/2018 16:01:42 ( 22.67, 144.45) 02/12/2018 16:05:17 ( 10.05, 141.45)
24 02/13/2018 03:10:47 ( 10.03, 151.98) 02/13/2018 03:14:22 ( 22.66, 148.98)
25 02/13/2018 15:42:40 ( 22.66, 149.21) 02/13/2018 15:46:15 ( 10.04, 146.21)
26 02/14/2018 02:51:44 ( 10.04, 156.74) 02/14/2018 02:55:19 ( 22.67, 153.73)
27 02/14/2018 15:23:37 ( 22.65, 153.97) 02/14/2018 15:27:12 ( 10.03, 150.97)
28 02/15/2018 02:32:42 ( 10.05, 161.49) 02/15/2018 02:36:17 ( 22.68, 158.49)
29 02/15/2018 15:04:35 ( 22.64, 158.73) 02/15/2018 15:08:10 ( 10.02, 155.73)
30 02/16/2018 02:14:28 ( 12.94, 165.59) 02/16/2018 02:17:14 ( 22.69, 163.25)
31 02/16/2018 03:55:08 ( 10.01, 140.89) 02/16/2018 03:56:49 ( 15.95, 139.51)


NCC Satellite Cal/Val Overpasses Prediction Service
